When you browse on this site, cookies collect data to enhance your experience and personalize the content and advertising you see.
Visit our Privacy Policy to learn more. By continuing to use the site, you agree to this use of cookies and data.
  • En España
  • Lista de países
  • Para 7 días
  • Temperatura del agua
  • El tiempo en el mapa
  • Informadores
  • user-avatar
    Iniciar sesión

    Tiempo cada hora Mulchén

    Hoy, 19 Febrero, Miércoles

    Tiempo Temperatura Precipitaciones Viento Presión Humedad
    00:00 +14°C° 0 mm 3 mps 744 mmHg 76%
    01:00 +13°C° 0 mm 3 mps 744 mmHg 79%
    02:00 +13°C° 0 mm 3 mps 744 mmHg 80%
    03:00 +12°C° 0 mm 3 mps 744 mmHg 81%
    04:00 +12°C° 0 mm 3 mps 744 mmHg 81%
    05:00 +13°C° 0 mm 4 mps 744 mmHg 77%
    06:00 +13°C° 0 mm 4 mps 745 mmHg 73%
    07:00 +14°C° 0 mm 4 mps 745 mmHg 69%
    08:00 +17°C° 0 mm 4 mps 745 mmHg 58%
    09:00 +20°C° 0 mm 5 mps 745 mmHg 47%
    10:00 +22°C° 0 mm 5 mps 745 mmHg 36%
    11:00 +25°C° 0 mm 5 mps 744 mmHg 30%
    12:00 +27°C° 0 mm 5 mps 744 mmHg 24%
    13:00 +29°C° 0 mm 5 mps 744 mmHg 19%
    14:00 +29°C° 0 mm 5 mps 744 mmHg 18%
    15:00 +29°C° 0 mm 5 mps 744 mmHg 18%
    16:00 +29°C° 0 mm 5 mps 744 mmHg 18%
    17:00 +26°C° 0 mm 5 mps 744 mmHg 24%
    18:00 +23°C° 0 mm 4 mps 744 mmHg 30%
    19:00 +20°C° 0 mm 4 mps 745 mmHg 36%
    20:00 +18°C° 0 mm 4 mps 745 mmHg 41%
    21:00 +17°C° 0 mm 4 mps 745 mmHg 46%
    22:00 +14°C° 0 mm 4 mps 745 mmHg 52%
    23:00 +14°C° 0 mm 4 mps 745 mmHg 53%

    Mañana, 20 Febrero, Jueves

    Tiempo Temperatura Precipitaciones Viento Presión Humedad
    00:00 +13°C° 0 mm 3 mps 744 mmHg 53%
    01:00 +12°C° 0 mm 3 mps 744 mmHg 54%
    02:00 +12°C° 0 mm 3 mps 744 mmHg 53%
    03:00 +11°C° 0 mm 3 mps 744 mmHg 52%
    04:00 +11°C° 0 mm 3 mps 743 mmHg 51%
    05:00 +12°C° 0 mm 3 mps 744 mmHg 47%
    06:00 +13°C° 0 mm 3 mps 744 mmHg 42%
    07:00 +14°C° 0 mm 3 mps 744 mmHg 38%
    08:00 +20°C° 0 mm 3 mps 744 mmHg 30%
    09:00 +25°C° 0 mm 3 mps 743 mmHg 22%
    10:00 +30°C° 0 mm 3 mps 743 mmHg 15%
    11:00 +33°C° 0 mm 3 mps 743 mmHg 13%
    12:00 +36°C° 0 mm 3 mps 743 mmHg 11%
    13:00 +39°C° 0 mm 3 mps 743 mmHg 9%
    14:00 +39°C° 0 mm 3 mps 742 mmHg 9%
    15:00 +39°C° 0 mm 3 mps 742 mmHg 9%
    16:00 +39°C° 0 mm 3 mps 742 mmHg 9%
    17:00 +36°C° 0 mm 3 mps 742 mmHg 12%
    18:00 +32°C° 0 mm 2 mps 742 mmHg 16%
    19:00 +29°C° 0 mm 2 mps 743 mmHg 20%
    20:00 +27°C° 0 mm 2 mps 743 mmHg 22%
    21:00 +25°C° 0 mm 2 mps 744 mmHg 25%
    22:00 +24°C° 0 mm 2 mps 744 mmHg 27%
    23:00 +21°C° 0 mm 2 mps 744 mmHg 30%

    Pasado mañana, 21 Febrero, Viernes

    Tiempo Temperatura Precipitaciones Viento Presión Humedad
    00:00 +21°C° 0 mm 1 mps 744 mmHg 32%
    01:00 +19°C° 0 mm 1 mps 744 mmHg 34%
    08:00 +26°C° 0 mm 1 mps 745 mmHg 21%
    09:00 +29°C° 0 mm 1 mps 745 mmHg 17%
    10:00 +33°C° 0 mm 1 mps 745 mmHg 12%
    11:00 +35°C° 0 mm 1 mps 745 mmHg 11%
    12:00 +37°C° 0 mm 1 mps 745 mmHg 10%
    13:00 +40°C° 0 mm 2 mps 745 mmHg 9%
    14:00 +39°C° 0 mm 2 mps 744 mmHg 9%
    15:00 +39°C° 0 mm 3 mps 744 mmHg 10%
    16:00 +39°C° 0 mm 3 mps 743 mmHg 10%
    17:00 +36°C° 0 mm 3 mps 743 mmHg 12%
    18:00 +33°C° 0 mm 3 mps 744 mmHg 14%
    19:00 +29°C° 0 mm 3 mps 744 mmHg 17%
    20:00 +26°C° 0 mm 2 mps 744 mmHg 23%
    21:00 +24°C° 0 mm 2 mps 745 mmHg 28%
    22:00 +21°C° 0 mm 1 mps 745 mmHg 34%
    23:00 +19°C° 0 mm 1 mps 745 mmHg 41%

    22 Febrero, Sábado

    Tiempo Temperatura Precipitaciones Viento Presión Humedad
    00:00 +16°C° 0 mm 1 mps 744 mmHg 48%
    01:00 +14°C° 0 mm 0 mps 744 mmHg 55%
    02:00 +13°C° 0 mm 0 mps 744 mmHg 53%
    03:00 +13°C° 0 mm 0 mps 745 mmHg 51%
    04:00 +13°C° 0 mm 0 mps 745 mmHg 50%
    05:00 +14°C° 0 mm 0 mps 745 mmHg 46%
    06:00 +16°C° 0 mm 0 mps 745 mmHg 41%
    07:00 +18°C° 0 mm 0 mps 746 mmHg 37%
    08:00 +21°C° 0 mm 0 mps 745 mmHg 30%
    09:00 +27°C° 0 mm 1 mps 745 mmHg 24%
    10:00 +31°C° 0 mm 1 mps 745 mmHg 17%
    11:00 +33°C° 0 mm 1 mps 745 mmHg 16%
    12:00 +36°C° 0 mm 2 mps 744 mmHg 15%
    13:00 +38°C° 0 mm 2 mps 744 mmHg 14%
    14:00 +38°C° 0 mm 2 mps 744 mmHg 13%
    15:00 +38°C° 0 mm 2 mps 744 mmHg 13%
    16:00 +38°C° 0 mm 2 mps 743 mmHg 13%
    17:00 +34°C° 0 mm 2 mps 744 mmHg 20%
    18:00 +29°C° 0 mm 2 mps 744 mmHg 26%
    19:00 +26°C° 0 mm 2 mps 744 mmHg 32%
    20:00 +23°C° 0 mm 1 mps 744 mmHg 39%
    21:00 +21°C° 0 mm 1 mps 744 mmHg 46%
    22:00 +19°C° 0 mm 1 mps 744 mmHg 53%
    23:00 +16°C° 0 mm 1 mps 744 mmHg 58%

    23 Febrero, Domingo

    Tiempo Temperatura Precipitaciones Viento Presión Humedad
    00:00 +15°C° 0 mm 1 mps 744 mmHg 64%
    01:00 +13°C° 0 mm 0 mps 744 mmHg 69%
    02:00 +13°C° 0 mm 0 mps 744 mmHg 71%
    03:00 +12°C° 0 mm 0 mps 744 mmHg 72%
    04:00 +12°C° 0 mm 0 mps 744 mmHg 74%
    05:00 +13°C° 0 mm 0 mps 744 mmHg 68%
    06:00 +15°C° 0 mm 0 mps 744 mmHg 62%
    07:00 +16°C° 0 mm 0 mps 744 mmHg 56%
    08:00 +22°C° 0 mm 1 mps 744 mmHg 47%
    09:00 +25°C° 0 mm 1 mps 744 mmHg 38%
    10:00 +28°C° 0 mm 2 mps 744 mmHg 28%
    11:00 +30°C° 0 mm 2 mps 744 mmHg 25%
    12:00 +31°C° 0 mm 2 mps 744 mmHg 22%
    13:00 +34°C° 0 mm 3 mps 744 mmHg 19%
    14:00 +34°C° 0 mm 3 mps 744 mmHg 20%
    15:00 +34°C° 0 mm 3 mps 744 mmHg 20%
    16:00 +34°C° 0 mm 3 mps 744 mmHg 20%
    17:00 +29°C° 0 mm 3 mps 744 mmHg 27%
    18:00 +26°C° 0 mm 3 mps 744 mmHg 34%
    19:00 +22°C° 0 mm 3 mps 744 mmHg 41%
    20:00 +20°C° 0 mm 3 mps 745 mmHg 51%
    21:00 +18°C° 0 mm 3 mps 745 mmHg 60%
    22:00 +15°C° 0 mm 2 mps 745 mmHg 69%
    23:00 +14°C° 0 mm 2 mps 745 mmHg 75%

    24 Febrero, Lunes

    Tiempo Temperatura Precipitaciones Viento Presión Humedad
    00:00 +13°C° 0 mm 1 mps 745 mmHg 81%
    01:00 +11°C° 0 mm 1 mps 745 mmHg 88%
    02:00 +11°C° 0 mm 1 mps 745 mmHg 89%
    03:00 +10°C° 0 mm 1 mps 745 mmHg 91%
    04:00 +10°C° 0 mm 1 mps 745 mmHg 93%
    05:00 +11°C° 0 mm 1 mps 745 mmHg 86%
    06:00 +13°C° 0 mm 1 mps 746 mmHg 80%
    07:00 +14°C° 0 mm 1 mps 746 mmHg 74%
    08:00 +17°C° 0 mm 2 mps 746 mmHg 61%
    09:00 +20°C° 0 mm 2 mps 746 mmHg 49%
    10:00 +24°C° 0 mm 2 mps 746 mmHg 37%
    11:00 +26°C° 0 mm 2 mps 746 mmHg 31%
    12:00 +27°C° 0 mm 3 mps 745 mmHg 26%
    13:00 +29°C° 0 mm 3 mps 745 mmHg 20%
    14:00 +29°C° 0 mm 3 mps 745 mmHg 21%
    15:00 +29°C° 0 mm 3 mps 745 mmHg 21%
    16:00 +28°C° 0 mm 3 mps 744 mmHg 22%
    17:00 +26°C° 0 mm 3 mps 745 mmHg 30%
    18:00 +22°C° 0 mm 4 mps 745 mmHg 38%
    19:00 +19°C° 0 mm 4 mps 745 mmHg 47%
    20:00 +17°C° 0 mm 4 mps 745 mmHg 55%
    21:00 +14°C° 0 mm 3 mps 746 mmHg 64%
    22:00 +13°C° 0 mm 3 mps 746 mmHg 72%
    23:00 +12°C° 0 mm 3 mps 745 mmHg 77%
    Mostrar más